STARLINK-35314

Last updated on Mon Oct 20 2025 00:02:07 GMT+0000 (Coordinated Universal Time)

1 65837U 25221Q 25292.25002315 -.01557172 00000+0 -28611-1 0 9997 2 65837 53.1603 27.8050 0001074 89.9930 259.8203 15.51580958 4438
UTC large
Height (km)
Speed (km/s)
/
Latitude / Longitude
Inclination (degrees)
Orbital Period (minutes)
Azimuth
Elevation
Range (km)
Doppler Factor

Next 0 passes for location: London (51.5072 / 0.1276)

Sorry there are no passes over London.